Temperature
24 21 20 21 21 22 22 23 23 23 24 24 23 23 23 23 23 22 22 22 22 22 22 22 21 21 20 20 20 19 19 19 19 18 18 18 18 17 17 17 17 17 17 17
21 21 22 23 23 23 23 23 23 23 24 24 23 23 22 22 22 22 22 22 22 21 21 21 21 21 20 20 20 19 19 19 19 18 18 18 18 17 17 17 17 17 17 17
21 22 24 24 24 24 23 23 23 23 24 24 23 22 22 22 22 22 22 22 21 21 21 21 20 20 20 20 20 20 19 19 19 18 18 17 17 17 17 17 17 17 17 17
22 23 25 24 24 24 23 24 25 25 23 21 22 20 21 21 21 21 21 21 21 21 20 20 20 20 20 20 20 19 19 19 18 18 18 18 17 17 17 17 17 17 16 16
23 24 24 24 25 25 24 25 25 24 22 21 21 20 20 20 20 20 20 21 21 21 20 20 20 20 20 20 19 19 19 19 18 18 18 17 17 17 17 17 17 16 16 16
23 25 25 25 26 26 25 24 23 21 19 20 20 20 19 19 19 20 20 20 21 20 20 20 19 19 19 19 19 19 19 18 18 18 18 17 17 17 17 17 17 17 16 16
23 24 25 25 25 24 24 21 20 20 19 19 20 20 19 19 20 20 19 20 20 20 20 19 19 19 19 19 19 19 18 18 18 18 18 17 17 17 17 17 17 17 17 16
22 22 24 25 24 24 23 21 20 20 19 19 19 19 19 20 20 20 20 20 20 19 19 19 19 19 19 19 19 19 18 18 18 18 18 17 17 17 17 17 17 17 17 17
21 22 24 25 25 24 23 21 20 19 19 18 18 19 19 19 19 19 19 19 19 19 19 19 19 19 19 18 18 18 18 18 18 18 18 17 17 17 17 17 17 16 16 16
22 22 23 24 25 24 23 21 18 19 19 19 19 19 18 18 18 18 18 18 19 19 18 18 18 19 18 18 18 18 18 18 18 18 17 17 17 17 17 17 16 16 16 16
21 21 21 22 22 22 22 21 19 17 18 18 18 18 19 18 18 18 18 18 18 18 18 18 18 18 18 18 18 18 17 17 17 17 17 17 17 17 17 16 16 16 16 16
20 18 19 21 22 22 21 21 19 18 18 17 17 17 19 18 17 17 18 18 18 18 18 18 18 18 18 17 17 17 17 17 17 17 17 17 17 17 17 16 16 16 16 16
20 18 18 20 20 21 21 20 19 17 16 17 17 18 18 17 17 17 17 17 17 17 17 17 17 17 17 17 17 16 16 16 16 17 17 16 16 16 16 16 16 16 16 16
20 17 18 19 19 20 20 20 20 18 16 17 17 18 17 17 16 16 17 17 17 17 16 16 16 16 16 16 16 16 16 16 16 16 16 16 16 16 16 16 16 16 16 16
18 18 19 19 20 21 20 20 20 19 18 17 17 17 17 16 16 16 16 16 16 16 16 16 16 16 16 16 16 16 16 16 16 16 16 16 16 16 16 16 16 16 15 15
16 18 19 19 20 20 20 20 19 19 19 18 17 17 16 16 16 16 16 15 15 15 15 15 15 15 15 15 15 15 15 15 15 15 15 16 15 15 15 15 15 15 15 15
16 16 17 17 19 19 18 18 18 18 18 17 17 16 15 15 15 15 15 15 15 15 14 15 15 15 15 15 15 15 15 15 15 15 15 15 15 15 15 15 15 15 15 15
15 15 14 15 17 17 16 17 18 17 16 16 16 15 15 15 15 15 15 15 15 15 15 15 15 15 15 15 15 15 15 15 15 15 15 15 15 15 15 15 15 14 14 14
15 15 14 14 15 16 17 17 16 16 15 15 15 15 14 14 14 14 15 15 15 15 15 15 15 15 15 15 15 14 14 14 14 14 14 14 14 14 14 14 14 14 14 14
15 14 14 14 15 15 15 16 16 16 14 14 14 14 14 14 12 13 14 15 15 15 15 15 14 14 14 14 14 14 14 14 14 14 14 14 14 14 14 14 14 14 14 14
13 13 13 13 14 14 14 15 16 15 14 14 14 14 14 13 13 14 14 14 14 14 14 14 14 14 14 14 14 14 14 14 14 14 14 14 14 14 14 14 14 14 14 14
12 12 12 12 13 13 13 14 13 12 13 13 13 14 14 14 14 14 14 14 14 14 14 14 14 14 14 14 14 13 13 13 13 13 13 13 14 14 13 13 13 13 14 13
12 11 11 11 11 12 12 12 13 13 13 13 13 14 14 13 13 14 14 14 14 14 14 14 14 13 13 13 13 13 13 13 13 13 13 13 13 13 13 13 13 13 13 13
11 11 11 10 11 11 12 12 12 13 13 13 13 14 14 13 13 14 13 13 13 13 13 14 13 13 13 13 13 13 13 13 13 13 13 13 13 13 13 13 13 13 13 13
11 11 10 10 11 11 12 12 12 12 13 13 13 13 13 13 13 13 13 13 13 13 13 13 13 13 13 13 13 12 12 12 12 12 12 13 13 12 13 13 13 13 13 13
10 10 10 10 11 10 11 11 12 12 12 12 12 12 13 13 13 13 12 13 13 13 13 12 12 12 12 12 12 12 12 12 12 12 12 12 12 12 12 12 13 13 13 13
Wind_Speed
2 2 6 10 10 8 6 6 7 8 6 2 3 3 3 2 6 7 8 8 9 9 7 9 10 12 11 9 9 9 10 9 7 5 5 4 3 3 3 3 6 7 7 6
2 7 12 9 7 7 8 8 8 7 4 2 2 2 2 3 7 9 9 8 8 8 7 9 9 10 10 10 9 9 10 9 8 6 5 4 3 3 3 3 4 6 6 7
9 9 6 6 8 7 8 8 8 6 4 1 2 4 3 1 3 5 6 7 8 11 11 10 10 9 10 10 10 10 9 9 8 6 4 4 3 2 2 2 3 3 5 6
7 9 7 7 9 7 8 9 7 5 1 3 1 1 4 1 3 4 5 5 5 8 9 9 9 9 10 9 8 8 8 8 7 7 7 7 5 4 4 4 4 3 4 5
7 5 5 7 11 8 7 7 4 2 2 1 3 3 4 2 1 2 5 6 6 7 9 9 10 10 8 7 8 7 7 7 6 7 8 7 5 4 3 3 5 4 4 4
8 6 5 8 9 6 4 1 3 4 4 1 2 3 3 2 3 2 3 5 6 8 8 8 7 6 6 6 6 7 7 6 6 7 7 7 7 6 5 5 5 4 3 4
7 8 6 4 4 5 0 3 3 4 3 3 2 2 4 4 3 4 3 4 5 7 7 7 7 7 6 7 8 7 8 6 6 7 7 7 7 7 8 6 6 5 4 3
3 7 5 3 4 4 2 7 7 4 4 3 2 2 3 3 2 3 3 4 5 6 7 7 8 8 8 8 7 7 8 6 6 7 7 6 6 6 5 6 6 6 5 5
4 6 4 3 3 4 1 2 6 6 2 1 2 1 3 3 3 3 4 5 4 6 6 5 5 7 7 8 7 8 8 6 6 6 5 5 6 6 6 6 5 5 5 5
4 3 5 4 1 1 5 5 5 5 3 2 2 2 3 3 2 3 3 4 3 3 5 4 4 5 5 5 5 5 6 6 6 5 5 5 5 6 6 6 6 6 5 5
3 2 5 4 1 2 1 2 4 4 5 4 3 4 3 7 6 6 4 4 4 4 4 4 3 4 4 4 4 4 4 4 4 5 5 5 5 5 5 5 6 5 5 5
1 4 3 5 3 2 3 3 5 4 2 4 4 4 1 5 6 7 5 4 4 4 3 3 3 4 4 4 3 3 4 4 5 5 5 5 5 4 5 5 5 5 5 5
2 4 0 5 5 3 2 1 3 5 4 4 5 4 1 4 4 5 6 4 4 5 4 3 2 3 4 4 3 3 3 4 4 4 4 4 4 4 5 5 5 5 5 5
3 3 6 7 6 2 0 1 1 4 3 3 5 5 1 3 4 4 4 4 5 4 3 3 2 2 2 3 3 3 3 3 3 3 4 4 5 5 6 5 5 5 5 5
3 2 3 3 2 2 2 1 1 2 5 5 5 5 4 4 5 4 4 4 5 5 3 2 2 2 2 2 1 2 3 2 2 3 4 5 5 5 5 5 5 4 4 6
3 2 1 0 2 3 2 2 1 1 3 5 6 2 2 4 5 5 4 4 4 4 3 1 1 1 2 2 2 1 2 2 2 3 5 4 4 4 4 5 5 5 4 4
1 3 2 2 2 2 2 2 1 2 2 5 5 4 4 5 5 4 3 3 3 2 2 0 1 2 2 3 3 3 3 2 2 2 3 3 4 4 4 5 5 5 5 5
4 3 3 1 1 2 4 1 4 5 3 2 3 4 5 6 4 3 3 3 2 1 2 2 2 2 2 1 2 1 1 1 1 1 2 2 3 3 3 4 5 5 4 5
5 6 4 3 3 2 2 2 1 1 1 3 4 5 4 5 5 4 2 2 2 2 3 3 2 2 1 1 1 1 1 1 0 1 2 2 3 3 3 3 4 4 5 5
4 4 4 3 3 5 4 5 3 4 1 2 3 4 4 4 2 1 2 1 1 1 1 1 1 1 1 1 1 2 1 1 1 3 3 3 2 4 4 5 4 3 4 5
4 3 2 2 3 2 4 6 3 3 4 3 1 2 3 2 4 3 1 1 1 1 1 1 1 1 1 1 1 1 1 2 3 2 2 2 3 3 4 4 4 3 4 4
1 1 1 1 2 4 6 4 2 3 1 1 2 2 3 2 2 2 1 0 1 1 1 0 1 1 1 0 1 1 2 3 2 1 1 2 3 3 2 3 3 4 4 5
2 2 2 2 2 2 3 1 0 2 2 1 2 2 4 3 2 1 1 0 1 1 1 0 0 1 2 1 0 1 2 2 1 1 2 2 3 2 2 3 4 3 4 4
3 2 3 2 0 1 3 4 4 3 1 0 1 3 4 3 2 1 1 1 1 1 1 0 1 1 2 2 1 1 2 1 0 1 2 2 2 2 2 2 3 3 4 4
2 1 2 1 1 1 3 4 3 3 3 2 2 2 3 3 1 2 2 1 1 1 1 0 0 0 2 2 2 2 1 0 1 1 2 2 2 2 2 2 2 4 5 6
2 1 2 3 4 2 3 3 2 3 2 2 1 1 1 1 2 1 1 1 1 1 1 0 0 1 2 2 2 3 2 1 1 1 2 1 1 1 1 1 2 3 4 6
Wind_Direction
243 137 227 228 211 210 230 256 267 271 268 228 216 232 232 177 161 164 164 165 160 161 161 154 157 154 150 152 154 156 157 160 154 152 150 148 161 165 159 165 165 162 161 157
341 250 237 235 235 233 242 251 264 279 266 194 197 236 225 147 168 165 162 156 155 149 146 156 156 153 158 162 161 160 161 161 162 166 163 157 155 166 167 163 164 166 162 164
214 242 237 237 244 240 254 231 234 250 291 325 91 347 334 40 109 136 146 148 150 160 162 162 159 160 161 168 170 168 166 164 164 158 142 126 108 104 130 152 174 178 171 173
239 248 248 249 249 229 250 243 230 232 218 293 109 217 291 289 91 126 141 140 150 161 161 162 161 164 170 174 169 161 163 164 163 158 156 155 159 169 185 180 182 182 175 178
248 230 230 245 247 227 231 244 243 225 159 32 15 125 285 17 102 171 164 164 158 157 158 163 168 171 171 168 166 160 159 164 165 164 165 166 167 174 166 163 170 185 192 189
250 251 226 237 254 232 214 304 3 40 72 23 255 150 259 245 209 209 174 168 165 163 162 167 164 157 154 157 161 160 162 168 169 169 170 171 172 169 164 173 181 189 196 199
290 284 264 251 277 295 258 101 26 355 9 251 241 146 234 252 203 171 176 179 166 159 153 157 161 158 161 162 166 168 170 177 179 175 179 181 180 177 180 183 187 188 191 201
250 283 269 245 209 232 233 145 159 196 214 252 301 204 247 269 206 144 129 145 155 149 153 159 167 170 170 167 165 167 175 183 184 184 191 191 183 183 192 190 187 192 198 203
201 253 278 267 227 171 196 189 175 148 150 122 264 280 324 354 60 78 90 102 131 144 140 145 153 159 168 170 177 181 176 179 188 191 192 193 189 188 192 191 186 193 199 199
175 256 286 275 345 335 163 153 86 107 148 211 235 218 215 209 168 115 117 116 122 139 134 135 145 146 159 171 178 177 176 186 187 186 195 197 195 198 193 187 189 197 198 192
143 187 302 346 130 235 33 85 109 121 147 155 204 258 210 174 160 146 136 120 124 124 143 147 148 152 157 157 161 169 180 185 186 188 195 196 200 199 192 191 194 195 194 189
160 141 260 267 254 178 155 169 144 146 189 146 158 250 262 155 153 139 126 115 117 117 120 130 138 139 137 158 175 180 192 194 198 195 190 195 195 188 191 197 196 188 190 191
128 125 129 328 336 6 68 143 147 134 130 153 164 222 70 107 111 119 115 104 96 101 104 101 108 133 153 165 177 187 200 207 204 186 177 186 192 188 197 200 193 188 185 184
129 133 170 201 227 225 249 325 121 121 142 183 189 187 195 130 127 114 100 104 106 104 112 116 117 125 136 147 168 190 209 209 194 183 181 193 205 202 201 195 189 187 182 182
84 146 198 204 198 111 97 69 90 144 177 176 188 177 198 173 152 137 117 109 102 93 85 101 123 127 122 132 163 197 202 201 197 191 200 214 216 208 198 193 190 182 183 189
44 126 103 336 111 94 48 8 62 102 124 140 134 169 177 128 113 99 96 104 104 100 88 78 114 119 136 171 194 218 215 203 195 214 219 223 215 208 205 203 195 183 184 185
44 108 100 245 259 25 338 326 95 102 90 151 171 194 145 119 114 126 134 116 112 118 136 148 238 206 205 198 188 198 212 199 192 214 228 217 204 209 211 206 191 189 193 189
158 124 136 187 47 213 238 281 97 103 66 79 130 148 146 143 149 128 116 126 142 161 176 206 230 238 245 215 195 194 177 171 199 233 228 217 202 211 215 204 197 198 195 194
168 152 140 144 176 213 290 343 26 126 53 43 117 128 122 107 85 48 44 98 169 200 192 199 203 209 224 215 188 150 146 182 251 261 240 239 218 214 211 211 216 210 197 199
68 108 136 148 165 210 250 302 309 114 155 331 99 140 140 105 108 248 307 34 24 299 189 173 164 110 88 314 154 143 182 211 254 259 247 246 234 220 219 219 219 212 200 204
24 30 100 149 180 237 297 315 2 140 227 282 105 148 138 156 187 210 231 25 308 281 221 193 153 137 200 212 129 142 180 252 254 254 252 246 236 229 223 216 213 210 201 200
87 83 58 107 171 250 329 16 89 205 211 98 84 102 111 115 137 139 119 62 320 337 301 129 94 337 294 229 159 176 246 268 271 249 249 250 245 243 245 217 218 211 197 196
72 157 158 157 200 272 346 35 146 138 124 133 138 155 131 125 147 151 139 134 299 298 279 306 101 343 328 329 162 208 259 273 318 310 275 273 265 257 238 210 210 211 201 199
348 40 99 87 332 339 12 22 18 43 71 315 153 144 135 151 179 183 177 205 272 288 275 256 78 12 333 319 314 255 265 259 281 299 301 285 284 292 285 230 207 205 208 209
304 6 70 136 248 9 10 357 356 12 24 43 53 104 135 151 177 186 180 187 224 258 271 198 130 301 304 314 297 283 283 300 320 294 297 314 311 292 299 288 251 231 227 215
295 203 181 225 232 191 254 284 346 8 352 344 26 30 58 157 178 153 184 203 203 300 324 11 349 306 311 319 315 293 267 252 260 301 316 314 301 293 291 298 313 299 262 250
Height
1482 1489 1494 1490 1488 1490 1492 1494 1494 1487 1478 1481 1484 1485 1483 1480 1481 1482 1484 1485 1487 1489 1492 1495 1497 1499 1501 1504 1506 1507 1509 1511 1513 1515 1516 1518 1519 1521 1522 1523 1525 1526 1527 1528
1487 1490 1481 1479 1481 1484 1488 1493 1491 1483 1476 1479 1484 1485 1481 1480 1480 1480 1482 1484 1487 1489 1492 1494 1496 1497 1499 1502 1504 1506 1507 1509 1511 1513 1514 1516 1518 1519 1520 1522 1523 1524 1525 1527
1487 1480 1473 1476 1479 1483 1484 1488 1487 1485 1478 1477 1482 1491 1486 1483 1481 1481 1482 1483 1486 1488 1490 1491 1494 1496 1498 1500 1502 1503 1505 1507 1509 1511 1513 1514 1516 1517 1518 1519 1521 1522 1524 1525
1480 1473 1472 1475 1476 1477 1485 1474 1475 1478 1486 1494 1489 1508 1493 1486 1484 1483 1484 1485 1487 1488 1489 1490 1492 1494 1496 1498 1500 1502 1504 1506 1508 1509 1511 1512 1513 1514 1515 1517 1519 1521 1522 1523
1476 1469 1470 1473 1469 1469 1474 1468 1472 1475 1485 1495 1495 1505 1501 1489 1490 1487 1484 1484 1484 1486 1488 1489 1491 1493 1495 1497 1499 1501 1502 1504 1506 1507 1509 1510 1511 1513 1515 1516 1518 1519 1521 1522
1468 1463 1464 1464 1461 1462 1465 1470 1475 1482 1493 1508 1500 1505 1506 1494 1490 1486 1484 1484 1484 1485 1488 1490 1492 1494 1495 1497 1498 1500 1501 1503 1504 1506 1507 1509 1510 1511 1513 1514 1516 1517 1519 1520
1473 1465 1460 1460 1464 1463 1467 1485 1503 1507 1514 1512 1498 1501 1502 1487 1484 1483 1483 1483 1484 1485 1487 1489 1490 1492 1494 1495 1497 1498 1500 1501 1503 1504 1506 1507 1509 1510 1511 1512 1514 1515 1516 1517
1484 1480 1462 1458 1462 1467 1468 1479 1504 1515 1518 1513 1501 1503 1496 1483 1481 1481 1481 1483 1484 1486 1487 1488 1489 1491 1492 1494 1495 1497 1499 1500 1501 1503 1504 1505 1507 1508 1509 1511 1512 1513 1514 1516
1480 1477 1458 1454 1454 1459 1469 1477 1478 1496 1503 1513 1509 1499 1491 1483 1481 1481 1482 1483 1484 1485 1486 1487 1488 1490 1491 1493 1494 1495 1497 1498 1499 1501 1502 1504 1505 1507 1508 1509 1510 1512 1513 1514
1467 1474 1462 1454 1453 1456 1461 1468 1483 1496 1510 1516 1508 1503 1501 1490 1487 1484 1483 1484 1484 1485 1485 1486 1488 1489 1490 1492 1494 1495 1496 1497 1497 1499 1500 1501 1503 1504 1506 1507 1508 1509 1511 1512
1462 1474 1469 1462 1464 1466 1466 1471 1480 1492 1496 1510 1516 1509 1485 1485 1484 1484 1484 1483 1484 1485 1486 1486 1487 1488 1489 1491 1493 1494 1494 1495 1496 1497 1498 1499 1500 1502 1503 1504 1505 1507 1508 1509
1462 1473 1478 1469 1460 1457 1462 1468 1477 1493 1497 1499 1508 1507 1481 1481 1481 1482 1483 1484 1483 1484 1485 1486 1487 1488 1488 1489 1491 1492 1493 1493 1494 1495 1496 1497 1498 1499 1500 1501 1503 1504 1505 1507
1461 1474 1485 1480 1474 1465 1466 1467 1470 1479 1490 1499 1506 1502 1482 1482 1482 1482 1483 1484 1484 1484 1485 1486 1486 1487 1487 1488 1489 1490 1491 1491 1492 1492 1493 1494 1495 1496 1497 1498 1499 1501 1502 1504
1457 1471 1480 1485 1480 1470 1470 1468 1468 1477 1492 1495 1493 1491 1485 1483 1483 1484 1484 1484 1483 1483 1485 1486 1486 1486 1486 1487 1488 1488 1489 1489 1490 1490 1491 1491 1492 1493 1494 1495 1496 1497 1499 1501
1459 1470 1468 1466 1463 1463 1466 1468 1468 1473 1478 1485 1486 1486 1484 1481 1481 1482 1483 1483 1483 1483 1484 1485 1485 1485 1485 1486 1486 1487 1487 1487 1488 1488 1488 1489 1490 1491 1491 1492 1493 1494 1496 1498
1462 1467 1467 1468 1463 1464 1468 1468 1467 1470 1472 1476 1479 1484 1480 1480 1481 1481 1481 1482 1482 1482 1483 1484 1484 1484 1484 1484 1485 1485 1485 1485 1485 1486 1485 1486 1487 1488 1488 1489 1490 1491 1493 1494
1466 1469 1475 1477 1468 1468 1478 1473 1471 1472 1472 1475 1481 1481 1479 1480 1480 1480 1480 1480 1480 1482 1482 1483 1483 1482 1482 1482 1483 1483 1483 1483 1483 1483 1483 1483 1484 1484 1485 1486 1487 1488 1489 1491
1466 1471 1478 1480 1477 1489 1481 1469 1469 1472 1474 1474 1475 1476 1476 1478 1479 1479 1479 1479 1479 1480 1481 1481 1481 1481 1480 1480 1481 1481 1481 1481 1481 1480 1480 1481 1481 1481 1481 1483 1483 1485 1486 1487
1459 1467 1477 1484 1486 1483 1475 1471 1471 1473 1477 1475 1475 1476 1477 1477 1479 1480 1480 1479 1479 1479 1479 1480 1480 1479 1479 1479 1479 1479 1479 1479 1478 1477 1477 1478 1478 1478 1479 1479 1480 1481 1483 1484
1460 1464 1474 1480 1484 1488 1480 1470 1468 1472 1481 1476 1475 1476 1476 1477 1482 1482 1479 1479 1478 1477 1478 1478 1478 1477 1477 1477 1477 1477 1476 1476 1475 1475 1475 1475 1475 1475 1476 1476 1477 1478 1479 1480
1472 1474 1477 1481 1484 1482 1475 1470 1467 1480 1483 1476 1475 1475 1476 1477 1478 1478 1477 1477 1477 1477 1477 1477 1476 1475 1475 1475 1475 1474 1474 1473 1473 1473 1473 1473 1473 1473 1473 1473 1474 1475 1476 1477
1479 1481 1482 1483 1487 1488 1476 1472 1476 1478 1475 1475 1474 1474 1475 1476 1476 1475 1475 1476 1476 1476 1476 1475 1474 1474 1474 1474 1473 1472 1472 1471 1471 1471 1470 1470 1469 1470 1470 1470 1470 1471 1472 1473
1479 1480 1482 1484 1486 1481 1477 1476 1476 1475 1475 1474 1474 1474 1474 1474 1475 1475 1475 1475 1475 1475 1474 1474 1474 1473 1472 1472 1471 1470 1470 1470 1469 1468 1467 1467 1466 1466 1467 1467 1467 1467 1469 1470
1479 1477 1480 1482 1481 1479 1478 1477 1476 1475 1474 1474 1473 1473 1473 1474 1474 1474 1474 1474 1475 1474 1474 1473 1472 1472 1471 1470 1469 1469 1469 1468 1467 1465 1465 1464 1463 1463 1463 1463 1464 1464 1465 1466
1481 1479 1480 1482 1481 1479 1477 1477 1476 1475 1474 1474 1473 1473 1473 1473 1473 1473 1472 1473 1473 1473 1472 1471 1470 1469 1468 1468 1467 1467 1467 1466 1464 1463 1462 1461 1461 1460 1460 1460 1461 1461 1462 1463
1480 1480 1482 1482 1479 1479 1478 1478 1476 1475 1474 1473 1473 1472 1472 1472 1472 1472 1471 1471 1471 1471 1470 1469 1468 1467 1467 1466 1465 1465 1464 1463 1462 1461 1460 1459 1458 1458 1458 1457 1457 1458 1459 1460